Regional Weather Roundup
Issued by NWS

Home | Current Version | Previous Version | Text Only | Print | Product List | Glossary On
Versions: 1 2 3 4 5 6 7 8 9 10 11 12 13 14 15 16 17 18 19 20 21 22 23 24 25 26 27 28 29 30 31 32 33 34 35 36 37 38 39 40 41 42 43 44 45 46 47 48 49 50
000
ASUS44 KFWD 250803
RWRTX
NORTH TEXAS HOURLY WEATHER ROUNDUP
NATIONAL WEATHER SERVICE FORT WORTH TX
300 AM CDT MON MAY 25 2015

NOTE: "FAIR" INDICATES FEW OR NO CLOUDS BELOW 12,000 FEET WITH NO
SIGNIFICANT WEATHER AND/OR OBSTRUCTIONS TO VISIBILITY.

TXZ118-119-250900-
DALLAS/FORT WORTH METROPLEX

CITY           SKY/WX    TMP DP  RH WIND       PRES   REMARKS
DFW AIRPORT    PTCLDY    69  68  96 S10       29.86F
DALLAS LOVE    PTCLDY    71  68  90 S10       29.87F
FTW MEACHAM    CLEAR     72  68  87 S10       29.86S
DAL-EXECUTIVE  PTCLDY    69  68  96 SE7       29.87F
FTW-ALLIANCE   CLEAR     70  68  93 S9        29.86S
FTW-NAS-JRB    CLEAR     72  69  90 S14       29.86F
ARLINGTON      PTCLDY    72  67  84 SE8       29.87S
GRAND PRAIRIE  CLEAR     70  70 100 S6        29.88S
ADDISON        PTCLDY    72  71  95 S8        29.89S
MESQUITE       MOCLDY    70  69  97 SE8       29.89S
LANCASTER      CLEAR     69  66  92 SE5       29.89S
$$

TXZ091>094-102>105-117-120-121-131>134-250900-
NORTH CENTRAL TEXAS

CITY           SKY/WX    TMP DP  RH WIND       PRES   REMARKS
SHRMAN/DENISON PTCLDY    71  70  97 S12       29.87F
GAINESVILLE    CLOUDY    69  68  98 SE7       29.88F
BRIDGEPORT     CLEAR     70  70 100 S9G18     29.87S
DECATUR        PTCLDY    68  67  96 S14       29.87S
DENTON         CLEAR     70  68  93 S8        29.86F
MCKINNEY       CLOUDY    71  70  96 S13       29.88F
ROCKWALL       MOCLDY    70  70  99 SE8       29.88S
TERRELL        CLOUDY    71  69  93 S10       29.90S
WAXAHACHIE     CLEAR     68  68 100 SE6       29.90S FOG
CLEBURNE       CLOUDY    70  70 100 S10       29.89F
GRANBURY       MOCLDY    71  69  93 SE9       29.87F
$$

TXZ083>090-098>101-113>116-127>130-139>142-154-155-250900-
WESTERN NORTH TEXAS

CITY           SKY/WX    TMP DP  RH WIND       PRES   REMARKS
WICHITA FALLS  CLEAR     67  66  97 S10       29.81F
WF-KICKAPOO    CLEAR     69  67  92 SE10      29.82F
VERNON         PTCLDY    68  62  82 S10       29.80F
ABILENE        CLEAR     68  65  90 S9        29.84S
BRECKENRIDGE   CLEAR     71  68  90 S13G20    29.83S
MINERAL WELLS  CLEAR     68  67  96 SE10      29.84F
STEPHENVILLE   CLOUDY    70  67  90 S10G17    29.90F
COMANCHE       CLOUDY    69  69 100 SE10      29.87F
COLEMAN        CLEAR     67  67  98 S9        29.86F
BRADY          MOCLDY    68  68 100 SE6       29.86F
$$

TXZ143>147-156>162-174-175-250900-
CENTRAL TEXAS

CITY           SKY/WX    TMP DP  RH WIND       PRES   REMARKS
WACO           LGT RAIN  70  68  93 S12       29.88F
WACO-MCGREGOR  MOCLDY    70  64  83 S8        29.89F
HILLSBORO      CLEAR     70  67  90 SE8       29.89S
CORSICANA      CLEAR     70  68  93 SE9       29.91S
MEXIA          CLEAR     68  67  97 SE16      29.89F
HEARNE         MOCLDY    70  69  96 SE6       29.92S
TEMPLE         CLOUDY    70  64  83 S12       29.88F
KILLEEN        CLOUDY    71  69  95 S10       29.88S
KILLEEN-SKYLRK CLOUDY    72  66  83 S10       29.88F
LAMPASAS       CLOUDY    73  70  91 S9G16     29.88S
$$

TXZ095>097-106>112-122>126-135>138-148>153-164>167-250900-
EAST TEXAS

CITY           SKY/WX    TMP DP  RH WIND       PRES   REMARKS
PARIS          CLOUDY    70  64  83 S10       29.91F
MOUNT PLEASANT CLOUDY    70  69  97 SE7       29.94S
GILMER         CLOUDY    70  69  96 SE5       29.93S
MINEOLA        CLOUDY    72  72 100 SE3       29.93R
TYLER          CLOUDY    70  69  97 S9        29.92S
LONGVIEW       CLOUDY    71  68  90 SE8       29.93S
MARSHALL       CLOUDY    73  71  92 SE3       29.97R
ATHENS         CLOUDY    68  68 100 S10       29.90F
PALESTINE      CLOUDY    70  70  99 SE6       29.93S FOG
JACKSONVILLE   CLOUDY    70  69  96 S9        29.95S
NACOGDOCHES    CLOUDY    70  66  88 S6        29.94S
LUFKIN         MOCLDY    71  68  90 SE7       29.94
$$

SUPPLEMENTAL OBSERVATIONS (CENTRAL)

CITY           SKY/WX    TMP DP  RH WIND       PRES   REMARKS
$$

SUPPLEMENTAL OBSERVATIONS (WEST)

CITY           SKY/WX    TMP DP  RH WIND       PRES   REMARKS
$$

SUPPLEMENTAL OBSERVATIONS (EAST)

CITY           SKY/WX    TMP DP  RH WIND       PRES   REMARKS
$$

SUPPLEMENTAL OBSERVATIONS ARE A COLLECTION OF AUTOMATED INSTRUMENTS
THAT ARE MAINTAINED BY A VARIETY OF FEDERAL AND STATE AGENCIES.
CERTAIN ELEMENTS...SUCH AS HUMIDITY VALUES AND SUSTAINED WIND
SPEEDS...MAY BE APPROXIMATED.




USA.gov is the U.S. government's official web portal to all federal, state and local government web resources and services.